FW8892 Weather Reports


Display with metric or nautical units.
time (UTC)temp
F
wind
direction
speed
MPH
gust
MPH
rain 1hr
in
rain 24hr
in
rain mn
in
humidity
%
barometer
mb
20260502202530 62 242 3.0 10.0 0.00 0.00 0.00 55 1015.6
20260502202030 62 244 2.0 11.0 0.00 0.00 0.00 52 1015.9
20260502201540 62 214 4.0 13.0 0.00 0.00 0.00 52 1016.0
20260502201030 62 216 5.0 13.0 0.00 0.00 0.00 48 1016.1
20260502200530 63 230 3.0 10.0 0.00 0.00 0.00 50 1016.0
20260502200054 63 231 3.0 10.0 0.00 0.00 0.00 50 1016.0
20260502195527 63 225 2.0 10.0 0.00 0.00 0.00 50 1016.0
20260502195029 64 227 1.0 6.0 0.00 0.00 0.00 51 1016.0
20260502194546 64 287 0.0 4.0 0.00 0.00 0.00 46 1016.0
20260502194029 64 0 0.0 6.0 0.00 0.00 0.00 51 1016.1
20260502193528 64 0 2.0 6.0 0.00 0.00 0.00 56 1016.1
20260502193046 64 185 1.0 3.0 0.00 0.00 0.00 57 1016.1
20260502192530 63 0 0.0 2.0 0.00 0.00 0.00 48 1016.1
20260502192029 64 0 0.0 2.0 0.00 0.00 0.00 45 1016.3
20260502191550 64 0 0.0 4.0 0.00 0.00 0.00 47 1016.2
20260502191029 64 0 1.0 4.0 0.00 0.00 0.00 44 1016.2
20260502190530 64 0 0.0 3.0 0.00 0.00 0.00 45 1016.1
20260502190041 64 0 0.0 3.0 0.00 0.00 0.00 47 1016.1
20260502185529 64 0 0.0 4.0 0.00 0.00 0.00 49 1016.2
20260502185029 64 0 0.0 4.0 0.00 0.00 0.00 45 1016.2
20260502184541 65 298 1.0 8.0 0.00 0.00 0.00 45 1016.3
20260502184032 65 0 0.0 8.0 0.00 0.00 0.00 47 1016.2
20260502183528 65 265 2.0 8.0 0.00 0.00 0.00 47 1016.3
20260502183048 65 247 0.0 4.0 0.00 0.00 0.00 47 1016.3
20260502182529 65 0 0.0 8.0 0.00 0.00 0.00 49 1016.3
20260502182029 64 245 0.0 8.0 0.00 0.00 0.00 55 1016.4
20260502181551 63 320 2.0 8.0 0.00 0.00 0.00 49 1016.3
20260502181028 63 0 2.0 7.0 0.00 0.00 0.00 45 1016.3
20260502180531 64 288 0.0 4.0 0.00 0.00 0.00 47 1016.4
20260502164030 63 68 3.0 10.0 0.00 0.00 0.00 51 1017.3
20260502163530 64 65 2.0 9.0 0.00 0.00 0.00 45 1017.4
20260502163100 65 0 2.0 8.0 0.00 0.00 0.00 45 1017.6
20260502162528 65 67 3.0 6.0 0.00 0.00 0.00 47 1017.5
20260502162030 65 0 0.0 1.0 0.00 0.00 0.00 51 1017.7
20260502161557 64 0 0.0 3.0 0.00 0.00 0.00 46 1017.6
20260502161027 64 0 0.0 6.0 0.00 0.00 0.00 51 1017.8
20260502160530 63 321 0.0 6.0 0.00 0.00 0.00 53 1017.7
20260502152031 63 62 0.0 2.0 0.00 0.00 0.00 46 1017.8
20260502151550 63 250 0.0 5.0 0.00 0.00 0.00 50 1017.7
20260502151031 63 296 0.0 5.0 0.00 0.00 0.00 53 1017.7
20260502150530 62 0 1.0 4.0 0.00 0.00 0.00 54 1017.7
20260502130528 56 0 1.0 3.0 0.00 0.00 0.00 67 1017.2
20260502123529 52 94 1.0 4.0 0.00 0.00 0.00 74 1017.1
20260502123056 51 71 0.0 3.0 0.00 0.00 0.00 75 1017.2
20260502122529 50 100 0.0 2.0 0.00 0.00 0.00 78 1017.2
20260502122030 50 0 0.0 0.0 0.00 0.00 0.00 81 1017.1
20260502121544 48 0 0.0 0.0 0.00 0.00 0.00 86 1017.2
20260502121029 47 0 0.0 0.0 0.00 0.00 0.00 88 1017.0
20260502120529 46 0 0.0 0.0 0.00 0.00 0.00 89 1017.0
20260502115531 43 0 0.0 0.0 0.00 0.00 0.00 94 1016.9
20260502115030 42 0 0.0 0.0 0.00 0.00 0.00 94 1016.9
20260502114549 41 0 0.0 0.0 0.00 0.00 0.00 96 1016.9
20260502114029 41 0 0.0 0.0 0.00 0.00 0.00 96 1016.7
20260502113541 40 0 0.0 0.0 0.00 0.00 0.00 96 1016.6
20260502113048 39 0 0.0 0.0 0.00 0.00 0.00 96 1016.6
20260502112532 38 0 0.0 0.0 0.00 0.00 0.00 94 1016.5
20260502112028 38 0 0.0 0.0 0.00 0.00 0.00 94 1016.5
20260502111553 38 0 0.0 0.0 0.00 0.00 0.00 94 1016.4
20260502111028 38 0 0.0 0.0 0.00 0.00 0.00 94 1016.4
20260502110527 38 0 0.0 0.0 0.00 0.00 0.00 93 1016.4
20260502110048 38 0 0.0 0.0 0.00 0.00 0.00 94 1016.4
20260502105527 38 0 0.0 0.0 0.00 0.00 0.00 94 1016.3
20260502105028 38 0 0.0 0.0 0.00 0.00 0.00 94 1016.3
20260502104544 38 0 0.0 0.0 0.00 0.00 0.00 93 1016.3
20260502104027 38 0 0.0 0.0 0.00 0.00 0.00 93 1016.3
20260502103527 38 0 0.0 0.0 0.00 0.00 0.00 93 1016.3
20260502103047 39 0 0.0 0.0 0.00 0.00 0.00 93 1016.3
20260502102527 39 0 0.0 0.0 0.00 0.00 0.00 92 1016.2
20260502102027 39 0 0.0 0.0 0.00 0.00 0.00 92 1016.2
20260502101544 39 0 0.0 0.0 0.00 0.00 0.00 92 1016.2
20260502101026 39 0 0.0 0.0 0.00 0.00 0.00 92 1016.3
20260502100527 39 0 0.0 0.0 0.00 0.00 0.00 92 1016.2
20260502091029 41 0 0.0 0.0 0.00 0.00 0.00 91 1016.3
20260502090527 41 0 0.0 0.0 0.00 0.00 0.00 91 1016.3
20260502071030 42 0 0.0 0.0 0.00 0.00 0.00 90 1016.7
20260502070530 42 0 0.0 0.0 0.00 0.00 0.00 91 1016.7
20260502070048 42 0 0.0 0.0 0.00 0.00 0.00 91 1016.8
20260502065530 42 0 0.0 0.0 0.00 0.00 0.00 91 1016.8
20260502065031 42 0 0.0 0.0 0.00 0.00 0.00 91 1016.8
20260502064550 42 0 0.0 0.0 0.00 0.00 0.00 91 1016.9
20260502064029 42 0 0.0 0.0 0.00 0.00 0.00 91 1017.1
20260502063530 42 0 0.0 0.0 0.00 0.00 0.00 90 1017.0
20260502063101 42 0 0.0 0.0 0.00 0.00 0.00 90 1017.0
20260502062531 42 0 0.0 0.0 0.00 0.00 0.00 90 1017.2
20260502062026 42 0 0.0 0.0 0.00 0.00 0.00 90 1017.3
20260502061548 42 0 0.0 0.0 0.00 0.00 0.00 90 1017.4
20260502061030 42 0 0.0 0.0 0.00 0.00 0.00 90 1017.5
20260502060527 42 0 0.0 0.0 0.00 0.00 0.00 90 1017.3
20260502060050 42 0 0.0 0.0 0.00 0.00 0.00 90 1017.3
20260502055530 42 0 0.0 0.0 0.00 0.00 0.00 90 1017.3
20260502055029 42 0 0.0 0.0 0.00 0.00 0.00 90 1017.2
20260502054543 42 0 0.0 0.0 0.00 0.00 0.00 90 1017.1
20260502054029 42 0 0.0 0.0 0.00 0.00 0.00 89 1017.0
20260502053529 42 0 0.0 0.0 0.00 0.00 0.00 89 1016.7
20260502053055 42 0 0.0 0.0 0.00 0.00 0.00 89 1016.7
20260502052530 42 0 0.0 0.0 0.00 0.00 0.00 88 1016.7
20260502052030 42 0 0.0 0.0 0.00 0.00 0.00 88 1016.7
20260502051548 42 0 0.0 0.0 0.00 0.00 0.00 88 1016.7
20260502051026 42 0 0.0 0.0 0.00 0.00 0.00 87 1016.6
20260502050530 42 0 0.0 0.0 0.00 0.00 0.00 87 1016.5
20260502050047 42 0 0.0 0.0 0.00 0.00 0.00 87 1016.5
20260502045529 43 0 0.0 0.0 0.00 0.00 0.00 87 1016.5
20260502045028 43 0 0.0 0.0 0.00 0.00 0.00 86 1016.4
20260502044542 43 0 0.0 0.0 0.00 0.00 0.00 86 1016.5
20260502044027 43 0 0.0 0.0 0.00 0.00 0.00 86 1016.6
20260502043527 43 0 0.0 0.0 0.00 0.00 0.00 86 1016.7
20260502043042 43 0 0.0 0.0 0.00 0.00 0.00 86 1016.9
20260502042527 43 0 0.0 0.0 0.00 0.00 0.00 86 1016.9
20260502042027 44 0 0.0 0.0 0.00 0.00 0.00 86 1016.9
20260502041539 44 0 0.0 0.0 0.00 0.00 0.00 85 1017.0
20260502041027 44 0 0.0 0.0 0.00 0.00 0.00 85 1017.0
20260502040528 44 0 0.0 0.0 0.00 0.00 0.00 84 1017.1
20260502040040 44 0 0.0 0.0 0.00 0.00 0.00 84 1017.1
20260502035529 44 0 0.0 0.0 0.00 0.00 0.00 83 1017.1
20260502035029 45 0 0.0 0.0 0.00 0.00 0.00 83 1017.2
20260502034545 45 0 0.0 0.0 0.00 0.00 0.00 81 1017.2
20260502034027 45 0 0.0 0.0 0.00 0.00 0.00 81 1017.4
20260502033526 45 0 0.0 0.0 0.00 0.00 0.00 81 1017.5
20260502033048 45 0 0.0 0.0 0.00 0.00 0.00 80 1017.6
20260502032531 46 0 0.0 0.0 0.00 0.00 0.00 80 1017.6
20260502032028 46 0 0.0 0.0 0.00 0.00 0.00 80 1017.6
20260502031544 46 0 0.0 0.0 0.00 0.00 0.00 80 1017.6
20260502031026 46 0 0.0 0.0 0.00 0.00 0.00 80 1017.8
20260502030530 47 0 0.0 0.0 0.00 0.00 0.00 79 1017.9
20260502030048 47 0 0.0 0.0 0.00 0.00 0.00 78 1017.8
20260502025525 47 0 0.0 0.0 0.00 0.00 0.00 77 1017.9
20260502025027 47 0 0.0 0.0 0.00 0.00 0.00 76 1017.8
20260502024543 48 0 0.0 0.0 0.00 0.00 0.00 75 1017.7
20260502024026 48 0 0.0 0.0 0.00 0.00 0.00 74 1017.5
20260502023529 48 0 0.0 0.0 0.00 0.00 0.00 75 1017.5
20260502023043 49 0 0.0 0.0 0.00 0.00 0.00 73 1017.6
20260502022526 49 0 0.0 0.0 0.00 0.00 0.00 72 1017.6
20260502022028 50 0 0.0 0.0 0.00 0.00 0.00 72 1017.6
20260502021542 50 0 0.0 0.0 0.00 0.00 0.00 71 1017.4
20260502021028 50 0 0.0 0.0 0.00 0.00 0.00 68 1017.5
20260502020529 51 0 0.0 0.0 0.00 0.00 0.00 66 1017.5
20260502020042 51 0 0.0 2.0 0.00 0.00 0.00 66 1017.4
20260502015529 51 0 0.0 3.0 0.00 0.00 0.00 65 1017.3
20260502015026 51 0 0.0 3.0 0.00 0.00 0.00 64 1017.1
20260502014539 51 0 0.0 2.0 0.00 0.00 0.00 64 1017.0
20260502014026 51 344 1.0 2.0 0.00 0.00 0.00 63 1017.0
20260502013528 52 0 0.0 2.0 0.00 0.00 0.00 63 1017.0
20260502013047 52 0 0.0 2.0 0.00 0.00 0.00 63 1017.0
20260502012529 52 0 0.0 2.0 0.00 0.00 0.00 62 1016.9
20260502012026 53 0 0.0 2.0 0.00 0.00 0.00 61 1016.8
20260502011547 53 0 0.0 1.0 0.00 0.00 0.00 62 1016.7
20260502011026 53 0 0.0 1.0 0.00 0.00 0.00 60 1016.7
20260502010529 53 0 0.0 1.0 0.00 0.00 0.00 58 1016.7
20260502010048 54 0 0.0 2.0 0.00 0.00 0.00 58 1016.5
20260502005528 54 0 0.0 4.0 0.00 0.00 0.00 57 1016.5
20260502005027 55 14 0.0 4.0 0.00 0.00 0.00 56 1016.3
20260502004542 55 0 1.0 4.0 0.00 0.00 0.00 55 1016.3
20260502004027 55 345 0.0 4.0 0.00 0.00 0.00 55 1016.2
20260502003525 56 360 1.0 3.0 0.00 0.00 0.00 53 1016.1
20260502003042 56 355 1.0 3.0 0.00 0.00 0.00 53 1016.2
20260502002526 56 327 0.0 3.0 0.00 0.00 0.00 53 1016.0
20260502002030 56 338 1.0 4.0 0.00 0.00 0.00 51 1015.8
20260502001542 57 339 1.0 6.0 0.00 0.00 0.00 50 1015.7
20260502001030 57 344 1.0 6.0 0.00 0.00 0.00 51 1015.6
20260502000526 57 342 1.0 6.0 0.00 0.00 0.00 49 1015.5
20260502000057 58 355 2.0 5.0 0.00 0.00 0.00 49 1015.4
20260501235528 58 327 1.0 4.0 0.00 0.00 0.00 48 1015.2
20260501235026 58 9 1.0 4.0 0.00 0.00 0.00 47 1015.1
20260501234545 59 355 2.0 5.0 0.00 0.00 0.00 46 1015.0
20260501234028 59 355 2.0 6.0 0.00 0.00 0.00 46 1015.0
20260501233526 59 40 2.0 6.0 0.00 0.00 0.00 46 1015.0
20260501233043 59 339 1.0 9.0 0.00 0.00 0.00 45 1015.0
20260501232529 59 355 1.0 9.0 0.00 0.00 0.00 44 1015.0
20260501232029 59 275 2.0 9.0 0.00 0.00 0.00 44 1014.9
20260501231557 59 344 2.0 9.0 0.00 0.00 0.00 43 1014.8
20260501231029 60 40 2.0 8.0 0.00 0.00 0.00 44 1014.9
20260501230526 60 333 2.0 8.0 0.00 0.00 0.00 42 1014.8
20260501230044 60 308 1.0 8.0 0.00 0.00 0.00 43 1014.9
20260501225527 60 288 2.0 6.0 0.00 0.00 0.00 42 1014.8
20260501225028 60 319 1.0 11.0 0.00 0.00 0.00 41 1014.6
20260501224557 60 39 2.0 11.0 0.00 0.00 0.00 40 1014.6
20260501224026 61 17 4.0 11.0 0.00 0.00 0.00 39 1014.5
20260501223529 61 5 2.0 8.0 0.00 0.00 0.00 41 1014.4
20260501223050 61 310 2.0 9.0 0.00 0.00 0.00 41 1014.6
20260501222528 61 338 3.0 9.0 0.00 0.00 0.00 39 1014.5
20260501222026 62 309 2.0 9.0 0.00 0.00 0.00 40 1014.5
20260501221601 62 304 3.0 9.0 0.00 0.00 0.00 38 1014.5
20260501221028 62 322 3.0 9.0 0.00 0.00 0.00 40 1014.4
20260501220529 62 308 2.0 9.0 0.00 0.00 0.00 40 1014.4
20260501220046 62 311 2.0 7.0 0.00 0.00 0.00 39 1014.4
20260501215526 62 302 1.0 10.0 0.00 0.00 0.00 41 1014.5
20260501215029 62 294 2.0 10.0 0.00 0.00 0.00 40 1014.5
20260501214541 62 5 3.0 12.0 0.00 0.00 0.00 35 1014.6
20260501214028 63 273 3.0 12.0 0.00 0.00 0.00 38 1014.4
20260501213528 63 281 1.0 5.0 0.00 0.00 0.00 39 1014.4
20260501213041 63 311 2.0 8.0 0.00 0.00 0.00 40 1014.5
20260501212526 63 319 2.0 8.0 0.00 0.00 0.00 42 1014.6
20260501212026 63 308 2.0 11.0 0.00 0.00 0.00 41 1014.5
20260501211602 63 281 3.0 11.0 0.00 0.00 0.00 41 1014.5
20260501211026 63 5 4.0 10.0 0.00 0.00 0.00 39 1014.5
20260501210526 63 200 3.0 10.0 0.00 0.00 0.00 39 1014.7
20260501210048 63 333 3.0 10.0 0.00 0.00 0.00 39 1014.8
20260501205528 63 316 4.0 10.0 0.00 0.00 0.00 41 1014.9
20260501205029 63 16 2.0 10.0 0.00 0.00 0.00 44 1014.9
20260501204547 64 349 3.0 10.0 0.00 0.00 0.00 40 1015.0
20260501204029 64 336 3.0 10.0 0.00 0.00 0.00 41 1015.0
20260501203526 64 317 2.0 8.0 0.00 0.00 0.00 46 1015.1
20260501203040 64 5 1.0 8.0 0.00 0.00 0.00 44 1015.2